This demonstration page uses our WeatherBlox Daily Observations layout. Learn more.

Left ArrowRight Arrow

39.01783, -85.05884

Hourly Observations for November 14, 2018

Temp ( °F °C ) Dew Point ( °F °C ) Humidity (%) Winds ( mph kmh ) Pressure ( in mb ) Visibility ( mi km ) Precip ( " mm )
12:52 am 00:52 Mostly Cloudy 26 -3.3 21 -6.1 81 81 NNW 8 13 30.48 1032 8 13 0.00 0.00
1:52 am 01:52 Cloudy 25 -3.9 21 -6.1 85 85 N 10 17 30.48 1032 8 13 0.00 0.00
2:52 am 02:52 Mostly Cloudy 25 -3.9 21 -6.1 85 85 N 9 15 30.49 1032 7 11 0.00 0.00
3:52 am 03:52 Mostly Cloudy 24 -4.4 20 -6.7 84 84 NNE 7 11 30.50 1033 7 11 0.00 0.00
4:52 am 04:52 Mostly Cloudy 25 -3.9 19 -7.2 78 78 N 6 9 30.50 1033 8 13 0.00 0.00
5:52 am 05:52 Cloudy 25 -3.9 18 -7.8 75 75 NE 9 15 30.51 1033 9 14 0.00 0.00
6:52 am 06:52 Cloudy 25 -3.9 17 -8.3 72 72 NNE 12 19 30.52 1034 10 16 0.00 0.00
7:52 am 07:52 Cloudy 25 -3.9 17 -8.3 72 72 NE 8 13 30.53 1034 10 16 0.00 0.00
8:52 am 08:52 Cloudy 27 -2.8 18 -7.8 69 69 ENE 9 15 30.55 1035 10 16 0.00 0.00
9:52 am 09:52 Cloudy 28 -2.2 17 -8.3 63 63 NE 13 20 30.56 1035 10 16 0.00 0.00
10:52 am 10:52 Cloudy 29 -1.7 17 -8.3 61 61 ENE 14 22 30.57 1035 10 16 0.00 0.00
11:52 am 11:52 Cloudy 30 -1.1 17 -8.3 58 58 NE 9 15 30.56 1035 10 16 0.00 0.00
12:52 pm 12:52 Cloudy 31 -0.6 18 -7.8 59 59 NE 10 17 30.52 1034 10 16 0.00 0.00
1:52 pm 13:52 Cloudy 31 -0.6 18 -7.8 59 59 NE 13 20 30.50 1033 10 16 0.00 0.00
2:52 pm 14:52 Cloudy 32 0 18 -7.8 56 56 NE 13 20 30.46 1032 10 16 0.00 0.00
3:52 pm 15:52 Cloudy 32 0 18 -7.8 56 56 E 13 20 30.45 1031 10 16 0.00 0.00
4:52 pm 16:52 Cloudy 32 0 17 -8.3 54 54 NE 14 22 30.42 1030 10 16 0.00 0.00
5:52 pm 17:52 Cloudy 31 -0.6 18 -7.8 59 59 ENE 13 20 30.40 1030 10 16 0.00 0.00
6:52 pm 18:52 Cloudy 31 -0.6 18 -7.8 59 59 ENE 13 20 30.42 1030 10 16 0.00 0.00
7:52 pm 19:52 Cloudy 31 -0.6 18 -7.8 59 59 ENE 17 28 30.39 1029 10 16 0.00 0.00
8:31 pm 20:31 Cloudy 31 -0.6 20 -6.7 64 64 ENE 16 26 30.39 1029 10 16 0.00 0.03
8:52 pm 20:52 Cloudy 31 -0.6 22 -5.6 69 69 ENE 16 26 30.35 1028 7 11 0.00 0.03
9:15 pm 21:15 Cloudy with Light Freezing Rain 31 -0.6 23 -5 72 72 ENE 16 26 30.39 1029 6 10 0.01 0.25
9:52 pm 21:52 Cloudy with Light Freezing Rain 31 -0.6 24 -4.4 76 76 NE 15 24 30.32 1027 5 8 0.03 0.76
10:52 pm 22:52 Cloudy with Light Freezing Rain 30 -1.1 25 -3.9 82 82 NE 14 22 30.31 1027 5 8 0.03 0.76
11:31 pm 23:31 Cloudy with Freezing Rain 30 -1.1 27 -2.8 88 88 NE 14 22 30.33 1027 3 5 0.03 0.76
11:52 pm 23:52 Cloudy with Freezing Rain 31 -0.6 27 -2.8 85 85 NE 15 24 30.27 1025 4 6 0.06 1.52

Powered by AerisWeather